TimeMDT,TemperatureF,Dew PointF,Humidity,Sea Level PressureIn,VisibilityMPH,Wind Direction,Wind SpeedMPH,Gust SpeedMPH,PrecipitationIn,Events,Conditions,WindDirDegrees,DateUTC
12:53 AM,48.9,44.1,83,30.07,10.0,ESE,8.1,-,N/A,,Clear,120,2013-09-24 06:53:00
1:53 AM,51.1,42.1,71,30.07,10.0,ESE,12.7,-,N/A,,Clear,110,2013-09-24 07:53:00
2:53 AM,48.0,42.1,80,30.07,10.0,ESE,10.4,-,N/A,,Clear,110,2013-09-24 08:53:00
3:53 AM,46.9,42.1,83,30.08,10.0,East,16.1,-,N/A,,Clear,90,2013-09-24 09:53:00
4:53 AM,50.0,41.0,71,30.07,10.0,ESE,11.5,-,N/A,,Clear,110,2013-09-24 10:53:00
5:53 AM,46.9,41.0,80,30.09,10.0,East,13.8,-,N/A,,Clear,100,2013-09-24 11:53:00
6:53 AM,45.0,41.0,86,30.11,10.0,SE,11.5,-,N/A,,Clear,130,2013-09-24 12:53:00
7:53 AM,46.9,41.0,80,30.14,10.0,SE,11.5,-,N/A,,Clear,130,2013-09-24 13:53:00
8:53 AM,53.1,42.1,66,30.13,10.0,ESE,12.7,-,N/A,,Clear,120,2013-09-24 14:53:00
9:53 AM,55.9,42.1,60,30.11,10.0,SE,13.8,-,N/A,,Clear,130,2013-09-24 15:53:00
10:53 AM,59.0,39.0,48,30.09,10.0,SE,16.1,-,N/A,,Clear,130,2013-09-24 16:53:00
11:53 AM,62.1,39.9,44,30.05,10.0,ESE,11.5,-,N/A,,Clear,120,2013-09-24 17:53:00
12:53 PM,64.9,42.1,43,30.02,10.0,SE,8.1,-,N/A,,Clear,130,2013-09-24 18:53:00
1:53 PM,66.9,42.1,40,29.97,10.0,Calm,Calm,-,N/A,,Clear,0,2013-09-24 19:53:00
2:53 PM,72.0,33.1,24,29.93,10.0,Calm,Calm,-,N/A,,Clear,0,2013-09-24 20:53:00
3:53 PM,73.0,35.1,25,29.89,10.0,ENE,6.9,-,N/A,,Clear,70,2013-09-24 21:53:00
4:53 PM,73.0,36.0,26,29.85,10.0,NW,5.8,-,N/A,,Clear,320,2013-09-24 22:53:00
5:53 PM,71.1,39.9,32,29.84,10.0,WNW,6.9,-,N/A,,Clear,300,2013-09-24 23:53:00
6:53 PM,66.9,44.1,44,29.83,10.0,West,4.6,-,N/A,,Clear,270,2013-09-25 00:53:00
7:53 PM,59.0,48.9,69,29.84,10.0,Calm,Calm,-,N/A,,Clear,0,2013-09-25 01:53:00
8:53 PM,57.0,48.0,72,29.83,10.0,NE,4.6,-,N/A,,Clear,50,2013-09-25 02:53:00
9:53 PM,57.0,39.9,53,29.81,10.0,ESE,8.1,-,N/A,,Clear,110,2013-09-25 03:53:00
10:53 PM,55.9,37.0,49,29.79,10.0,ESE,6.9,-,N/A,,Clear,110,2013-09-25 04:53:00
11:53 PM,57.9,36.0,44,29.76,10.0,ESE,15.0,-,N/A,,Clear,110,2013-09-25 05:53:00